{"data":{"norad_id":54066,"epoch":"2026-05-24T23:41:35.159136Z","epoch_age_seconds":69468,"freshness":"FRESH","line1":"1 54066U 22136R   26144.98721249 -.00022371  00000+0 -14190-2 0  9997","line2":"2 54066  53.2190   1.5164 0001185  88.9296 271.1831 15.08136725198365","mean_motion":15.08136725,"eccentricity":0.0001185,"inclination_deg":53.219,"raan_deg":1.5164,"arg_perigee_deg":88.9296,"mean_anomaly_deg":271.1831,"bstar":-0.001419,"rev_number":19836,"period_min":95.482059161446,"perigee_km":541.07383093724,"apogee_km":542.71387824978,"semimajor_km":6920.0308545935,"source":"CELESTRAK","updated_at":"2026-05-25T13:38:17.650326Z"}}